• In Hungary
  • List of Countries
  • For 7 days
  • Water Temperature
  • Satellite Maps
  • Weather Map
  • News
  • Weather Widgets
  • user-avatar
    Login

    Hourly Weather Trinidad

    Today, 17 December, Sunday

    Time Temperature Precipitation Wind Pressure Humidity
    00:00 +28°C° 0 mm 2 mps 741 mmHg 81%
    01:00 +27°C° 0 mm 2 mps 740 mmHg 82%
    02:00 +27°C° 0 mm 2 mps 740 mmHg 83%
    03:00 +26°C° 0 mm 2 mps 740 mmHg 84%
    04:00 +26°C° 0 mm 2 mps 741 mmHg 86%
    05:00 +26°C° 0 mm 2 mps 741 mmHg 88%
    06:00 +27°C° 0 mm 2 mps 741 mmHg 84%
    07:00 +28°C° 0 mm 3 mps 742 mmHg 80%
    08:00 +29°C° 0 mm 3 mps 742 mmHg 76%
    09:00 +31°C° 0.1 mm 3 mps 742 mmHg 70%
    10:00 +33°C° 0.1 mm 3 mps 742 mmHg 64%
    11:00 +35°C° 0.1 mm 3 mps 742 mmHg 58%
    12:00 +36°C° 0 mm 3 mps 741 mmHg 55%
    13:00 +37°C° 0 mm 3 mps 740 mmHg 51%
    14:00 +38°C° 0 mm 3 mps 739 mmHg 47%
    15:00 +38°C° 0 mm 3 mps 739 mmHg 48%
    16:00 +38°C° 0 mm 3 mps 738 mmHg 49%
    17:00 +37°C° 0 mm 3 mps 738 mmHg 51%
    18:00 +36°C° 0 mm 2 mps 738 mmHg 57%
    19:00 +34°C° 0 mm 2 mps 738 mmHg 63%
    20:00 +31°C° 0 mm 2 mps 739 mmHg 70%
    21:00 +31°C° 0 mm 2 mps 739 mmHg 72%
    22:00 +30°C° 0 mm 2 mps 740 mmHg 73%
    23:00 +30°C° 0 mm 2 mps 741 mmHg 75%

    Tomorrow, 18 December, Monday

    Time Temperature Precipitation Wind Pressure Humidity
    00:00 +29°C° 0.6 mm 1 mps 741 mmHg 81%
    01:00 +28°C° 0.6 mm 1 mps 741 mmHg 86%
    02:00 +27°C° 0.6 mm 1 mps 741 mmHg 91%
    03:00 +26°C° 2.5 mm 1 mps 741 mmHg 93%
    04:00 +26°C° 2.5 mm 1 mps 741 mmHg 95%
    05:00 +23°C° 2.5 mm 0 mps 742 mmHg 97%
    06:00 +26°C° 1.2 mm 1 mps 742 mmHg 96%
    07:00 +26°C° 1.2 mm 1 mps 743 mmHg 95%
    08:00 +27°C° 1.2 mm 1 mps 744 mmHg 94%
    09:00 +28°C° 2.5 mm 1 mps 744 mmHg 92%
    10:00 +29°C° 2.5 mm 1 mps 744 mmHg 89%
    11:00 +30°C° 2.5 mm 1 mps 745 mmHg 86%
    12:00 +30°C° 1.6 mm 1 mps 744 mmHg 85%
    13:00 +30°C° 1.6 mm 1 mps 743 mmHg 83%
    14:00 +30°C° 1.6 mm 2 mps 743 mmHg 82%
    15:00 +30°C° 0 mm 1 mps 742 mmHg 78%
    16:00 +30°C° 0 mm 1 mps 741 mmHg 75%
    17:00 +29°C° 0 mm 0 mps 741 mmHg 72%
    18:00 +30°C° 0 mm 1 mps 741 mmHg 76%
    19:00 +29°C° 0 mm 1 mps 742 mmHg 80%
    20:00 +28°C° 0 mm 1 mps 742 mmHg 83%
    21:00 +28°C° 0 mm 1 mps 742 mmHg 84%
    22:00 +27°C° 0 mm 1 mps 743 mmHg 85%
    23:00 +25°C° 0 mm 0 mps 743 mmHg 86%

    Day after tomorrow, 19 December, Tuesday

    Time Temperature Precipitation Wind Pressure Humidity
    00:00 +27°C° 0 mm 1 mps 743 mmHg 86%
    01:00 +26°C° 0 mm 1 mps 743 mmHg 87%
    02:00 +26°C° 0 mm 1 mps 743 mmHg 88%
    03:00 +26°C° 0.4 mm 1 mps 743 mmHg 89%
    04:00 +25°C° 0.4 mm 1 mps 743 mmHg 90%
    05:00 +25°C° 0.4 mm 1 mps 743 mmHg 91%
    06:00 +26°C° 0.6 mm 1 mps 744 mmHg 88%
    07:00 +27°C° 0.6 mm 1 mps 744 mmHg 85%
    08:00 +28°C° 0.6 mm 2 mps 745 mmHg 82%
    09:00 +30°C° 0.2 mm 2 mps 745 mmHg 72%
    10:00 +32°C° 0.2 mm 2 mps 745 mmHg 63%
    11:00 +35°C° 0.2 mm 2 mps 745 mmHg 54%
    12:00 +35°C° 0.1 mm 1 mps 744 mmHg 52%
    13:00 +35°C° 0.1 mm 1 mps 743 mmHg 50%
    14:00 +36°C° 0.1 mm 1 mps 742 mmHg 47%
    15:00 +35°C° 0 mm 1 mps 741 mmHg 50%
    16:00 +35°C° 0 mm 1 mps 740 mmHg 52%
    17:00 +34°C° 0 mm 1 mps 740 mmHg 54%
    18:00 +32°C° 0.4 mm 1 mps 740 mmHg 62%
    19:00 +31°C° 0.4 mm 1 mps 741 mmHg 70%
    20:00 +29°C° 0.4 mm 2 mps 741 mmHg 78%
    21:00 +28°C° 0.3 mm 2 mps 742 mmHg 84%
    22:00 +27°C° 0.3 mm 2 mps 742 mmHg 89%
    23:00 +26°C° 0.3 mm 2 mps 743 mmHg 95%

    20 December, Wednesday

    Time Temperature Precipitation Wind Pressure Humidity
    00:00 +26°C° 0.8 mm 1 mps 742 mmHg 96%
    01:00 +25°C° 0.8 mm 1 mps 742 mmHg 97%
    02:00 +25°C° 0.8 mm 1 mps 742 mmHg 98%
    03:00 +25°C° 0.4 mm 1 mps 742 mmHg 98%
    04:00 +25°C° 0.4 mm 1 mps 742 mmHg 98%
    05:00 +25°C° 0.4 mm 1 mps 742 mmHg 98%
    06:00 +25°C° 0 mm 1 mps 743 mmHg 96%
    07:00 +26°C° 0 mm 1 mps 743 mmHg 94%
    08:00 +27°C° 0 mm 1 mps 744 mmHg 92%
    09:00 +28°C° 0.4 mm 1 mps 744 mmHg 85%
    10:00 +30°C° 0.4 mm 1 mps 744 mmHg 79%
    11:00 +31°C° 0.4 mm 2 mps 744 mmHg 73%
    12:00 +31°C° 1.3 mm 2 mps 743 mmHg 74%
    13:00 +31°C° 1.3 mm 2 mps 742 mmHg 76%
    14:00 +31°C° 1.3 mm 2 mps 741 mmHg 78%
    15:00 +30°C° 0.9 mm 1 mps 740 mmHg 80%
    16:00 +30°C° 0.9 mm 1 mps 740 mmHg 82%
    17:00 +30°C° 0.9 mm 1 mps 739 mmHg 83%
    18:00 +29°C° 0.7 mm 1 mps 740 mmHg 87%
    19:00 +28°C° 0.7 mm 1 mps 740 mmHg 91%
    20:00 +27°C° 0.7 mm 1 mps 740 mmHg 95%
    21:00 +26°C° 0.5 mm 1 mps 741 mmHg 96%
    22:00 +26°C° 0.5 mm 1 mps 741 mmHg 97%
    23:00 +26°C° 0.5 mm 1 mps 742 mmHg 97%

    21 December, Thursday

    Time Temperature Precipitation Wind Pressure Humidity
    00:00 +26°C° 0.8 mm 1 mps 741 mmHg 97%
    01:00 +26°C° 0.8 mm 1 mps 741 mmHg 97%
    02:00 +25°C° 0.8 mm 1 mps 740 mmHg 97%
    03:00 +25°C° 0.4 mm 1 mps 740 mmHg 97%
    04:00 +25°C° 0.4 mm 1 mps 740 mmHg 97%
    05:00 +25°C° 0.4 mm 1 mps 740 mmHg 97%
    06:00 +25°C° 0.3 mm 1 mps 741 mmHg 96%
    07:00 +26°C° 0.3 mm 2 mps 742 mmHg 94%
    08:00 +27°C° 0.3 mm 2 mps 743 mmHg 93%
    09:00 +28°C° 0.7 mm 2 mps 743 mmHg 88%
    10:00 +29°C° 0.7 mm 3 mps 743 mmHg 83%
    11:00 +30°C° 0.7 mm 3 mps 743 mmHg 78%
    12:00 +31°C° 0.3 mm 3 mps 742 mmHg 75%
    13:00 +31°C° 0.3 mm 3 mps 741 mmHg 71%
    14:00 +33°C° 0.3 mm 3 mps 740 mmHg 68%
    15:00 +33°C° 0.1 mm 3 mps 739 mmHg 69%
    16:00 +31°C° 0.1 mm 3 mps 739 mmHg 69%
    17:00 +31°C° 0.1 mm 3 mps 738 mmHg 69%
    18:00 +30°C° 0 mm 2 mps 738 mmHg 75%
    19:00 +29°C° 0 mm 2 mps 739 mmHg 80%
    20:00 +28°C° 0 mm 1 mps 739 mmHg 85%
    21:00 +28°C° 0 mm 1 mps 740 mmHg 86%
    22:00 +27°C° 0 mm 2 mps 740 mmHg 86%
    23:00 +27°C° 0 mm 2 mps 741 mmHg 87%

    22 December, Friday

    Time Temperature Precipitation Wind Pressure Humidity
    00:00 +27°C° 0.2 mm 2 mps 740 mmHg 88%
    01:00 +26°C° 0.2 mm 2 mps 740 mmHg 89%
    02:00 +26°C° 0.2 mm 2 mps 740 mmHg 91%
    03:00 +26°C° 0.4 mm 2 mps 740 mmHg 92%
    04:00 +25°C° 0.4 mm 2 mps 740 mmHg 94%
    05:00 +25°C° 0.4 mm 2 mps 740 mmHg 96%
    06:00 +25°C° 0.4 mm 2 mps 741 mmHg 94%
    07:00 +26°C° 0.4 mm 2 mps 742 mmHg 93%
    08:00 +26°C° 0.4 mm 2 mps 742 mmHg 91%
    09:00 +27°C° 0.7 mm 3 mps 742 mmHg 88%
    10:00 +28°C° 0.7 mm 3 mps 742 mmHg 86%
    11:00 +29°C° 0.7 mm 4 mps 742 mmHg 83%
    12:00 +30°C° 0.1 mm 4 mps 741 mmHg 74%
    13:00 +33°C° 0.1 mm 4 mps 740 mmHg 65%
    14:00 +34°C° 0.1 mm 4 mps 740 mmHg 56%
    15:00 +34°C° 0 mm 4 mps 739 mmHg 58%
    16:00 +34°C° 0 mm 3 mps 739 mmHg 60%
    17:00 +34°C° 0 mm 3 mps 738 mmHg 62%
    18:00 +31°C° 0 mm 2 mps 738 mmHg 67%
    19:00 +30°C° 0 mm 2 mps 739 mmHg 73%
    20:00 +29°C° 0 mm 2 mps 740 mmHg 79%
    21:00 +28°C° 0 mm 2 mps 740 mmHg 80%
    22:00 +28°C° 0 mm 2 mps 741 mmHg 82%
    23:00 +28°C° 0 mm 3 mps 741 mmHg 83%
    Show more